Location: Newark
(60.0000°N, 100.0000°E)
Time: 07:04:16
(UTC+00:00)

N. Korean satellite - Pass Details

Date: 22 November 2019
Orbit: 455 x 507 km, 97.2° (Epoch: 13 December)

Event Time Altitude Azimuth Distance (km) Brightness Sun altitude
Rises 00:03:19 0° 13° (NNE) 2,625 10.2 -10.4°
Reaches altitude 10° 00:05:27 10° 9° (N) 1,733 9.2 -10.1°
Maximum altitude 00:09:06 54° 292° (WNW) 617 6.7 -9.7°
Drops below altitude 10° 00:12:42 10° 214° (SW) 1,702 9.2 -9.3°
Sets 00:14:46 0° 210° (SSW) 2,574 10.2 -9.1°
